[[{"header":{"parameterUnit":"m.s-1","parameterCategory":1,"la1":30.2991,"la2":30.254,"lo1":-89.0895,"lo2":-89.0444,"dy":0.0017,"dx":0.0017,"nx":28,"ny":28,"refTime":"2025-07-16T09:00:00:Z","depth":0,"parameterNumber":2,"parameterNumberName":"U-component_of_WINDS"},"data":[0,0,0,0,0,0,0,0,0,0,0,0,0,0,0,0,0,0,0,0,0,0,0,0,0,0,0,0,0,0,0,0,0,0,0,0,0,0,0,0,0,0,0,0,0,0,0,0,0,0,0,0,0,0,0,0,0,0,-1.1927,-1.1927,0,-1.1886,-1.1886,-1.1885,-1.1908,-1.1909,-1.191,-1.1911,-1.1858,-1.1856,-1.1853,0,0,0,0,0,0,0,0,0,0,0,0,0,-1.2015,-1.2014,-1.1928,-1.1927,-1.1927,-1.1887,-1.1886,-1.1885,-1.1907,-1.1909,-1.191,-1.1912,-1.1859,-1.1856,-1.1853,0,0,0,0,0,0,0,0,0,0,0,0,0,-1.1976,-1.2013,-1.1928,-1.1933,-1.1933,-1.1887,-1.1886,-1.1885,-1.1907,-1.1909,-1.1911,-1.1912,-1.186,-1.1856,-1.1852,-1.1795,0,0,-1.1841,-1.1839,0,0,0,0,0,0,0,0,-1.1978,-1.1972,-1.1933,-1.1933,-1.1933,-1.1904,-1.1897,-1.1855,-1.1907,-1.1917,-1.1911,-1.1913,-1.1871,-1.1867,-1.1855,-1.1792,-1.179,-1.1841,-1.1838,-1.1837,-1.1836,0,0,0,0,0,0,0,-1.1981,-1.1974,-1.1911,-1.1932,-1.1932,-1.1934,-1.1931,-1.1889,-1.1884,-1.1916,-1.1917,-1.1913,-1.1871,-1.1858,-1.1854,-1.1789,-1.1841,-1.1838,-1.1835,-1.1834,-1.1677,-1.1675,0,0,0,0,0,0,-1.1984,-1.1976,-1.1912,-1.191,-1.196,-1.1931,-1.1927,-1.1911,-1.1885,-1.1883,-1.1911,-1.1914,-1.1864,-1.1858,-1.1852,-1.1783,-1.1837,-1.1833,-1.1831,-1.1679,-1.1676,-1.1674,0,0,0,0,0,0,-1.1986,-1.1979,-1.1914,-1.1944,-1.1936,-1.1928,-1.191,-1.191,-1.1897,-1.1882,-1.188,-1.19,-1.1865,-1.1857,-1.181,-1.1781,-1.1832,-1.1828,-1.1681,-1.1678,-1.1675,-1.1643,0,0,0,0,0,0,-1.1989,-1.1979,-1.196,-1.1943,-1.1934,-1.1875,-1.1908,-1.1908,-1.1892,-1.1895,-1.187,-1.1868,-1.1866,-1.1815,-1.1806,-1.1777,-1.1825,-1.1683,-1.168,-1.1676,-1.1647,-1.164,-1.1634,0,0,0,0,0,-1.1992,-1.195,-1.1958,-1.1951,-1.191,-1.1874,-1.1868,-1.187,-1.1889,-1.1868,-1.1858,-1.1868,-1.1786,-1.181,-1.18,-1.1769,-1.1685,-1.1681,-1.1676,-1.165,-1.1641,-1.1634,0,0,0,0,0,0,-1.1959,-1.1948,-1.1957,-1.1909,-1.1893,-1.1878,-1.1851,-1.186,-1.1835,-1.1838,-1.1838,-1.1832,-1.1783,-1.1771,-1.1798,-1.1712,-1.1738,-1.1731,-1.1721,-1.1713,-1.1706,-1.171,-1.1822,0,0,0,0,0,-1.1947,-1.1922,-1.1912,-1.1871,-1.1862,-1.1858,-1.1842,-1.1845,-1.1827,-1.1819,-1.1805,-1.1784,-1.1753,-1.1732,-1.1703,-1.1646,-1.1639,-1.1619,-1.1613,-1.1607,-1.1601,-1.1569,-1.1559,-1.166,-1.166,-1.166,0,0,-1.1921,-1.1911,-1.1895,-1.1864,-1.1852,-1.1822,-1.1852,-1.182,-1.1797,-1.1812,-1.1768,-1.1757,-1.1733,-1.168,-1.1656,-1.1669,-1.1572,-1.1602,-1.1598,-1.1594,-1.1563,-1.1554,-1.1545,-1.1657,-1.1658,-1.1658,0,0,-1.1858,-1.1849,-1.1814,-1.1801,-1.1783,-1.1781,-1.1772,-1.1756,-1.1751,-1.1707,-1.1718,-1.1689,-1.1636,-1.1619,-1.1602,-1.1534,-1.1541,-1.1524,-1.1488,-1.1457,-1.1449,-1.1442,-1.1416,-1.1407,-1.1518,-1.1518,-1.1518,0,-1.1826,-1.1786,-1.1793,-1.1761,-1.1746,-1.1763,-1.1725,-1.1712,-1.1683,-1.1671,-1.1687,-1.1622,-1.1606,-1.1549,-1.1533,-1.1519,-1.1507,-1.1526,-1.145,-1.1443,-1.1436,-1.1412,-1.1402,-1.1516,-1.1516,-1.1516,-1.1516,0,-1.1747,-1.1719,-1.1692,-1.1669,-1.1651,-1.1616,-1.1615,-1.1595,-1.16,-1.1595,-1.1549,-1.1531,-1.1499,-1.1486,-1.1488,-1.1429,-1.1437,-1.1451,-1.1477,-1.1425,-1.1401,-1.1392,-1.1513,-1.1513,-1.1514,-1.1515,0,0,-1.1661,-1.1644,-1.1634,-1.1623,-1.1605,-1.1582,-1.1546,-1.1519,-1.1501,-1.1481,-1.145,-1.1405,-1.1419,-1.1401,-1.1401,-1.1374,-1.1319,-1.1391,-1.1391,-1.1377,-1.125,-1.1239,-1.1228,-1.1325,-1.1323,-1.1322,-1.1252,0,-1.1597,-1.154,-1.1545,-1.1489,-1.1462,-1.1478,-1.1446,-1.143,-1.1424,-1.1398,-1.139,-1.1359,-1.138,-1.1369,-1.1342,-1.1331,-1.1293,-1.1337,-1.1292,-1.1291,-1.1297,-1.1216,-1.1204,-1.1139,-1.1243,-1.1242,-1.124,0,-1.1513,-1.1494,-1.1437,-1.1423,-1.1412,-1.1384,-1.1359,-1.1335,-1.1315,-1.1313,-1.1294,-1.1299,-1.126,-1.1289,-1.1234,-1.1263,-1.1246,-1.1237,-1.1235,-1.1229,-1.1262,-1.1207,-1.1119,-1.1108,-1.1226,-1.1227,-1.1228,0,-1.1455,-1.1415,-1.1375,-1.1366,-1.1349,-1.1329,-1.132,-1.1304,-1.1286,-1.1263,-1.1251,-1.1222,-1.1206,-1.1181,-1.1178,-1.1199,-1.1122,-1.115,-1.1116,-1.1116,-1.1098,-1.1099,-1.1004,-1.1088,-1.1089,-1.1089,-1.1089,0,-1.1382,-1.1345,-1.1349,-1.1325,-1.1284,-1.1289,-1.1247,-1.124,-1.1225,-1.1197,-1.1208,-1.118,-1.1178,-1.1149,-1.1145,-1.1099,-1.1091,-1.1086,-1.1085,-1.1085,-1.1085,-1.1072,-1.1076,-1.1086,-1.1087,-1.1087,-1.1088,0,-1.1309,-1.1311,-1.1269,-1.1257,-1.1253,-1.1224,-1.1212,-1.1187,-1.1183,-1.1147,-1.1139,-1.1131,-1.1098,-1.1093,-1.1051,-1.1049,-1.0994,-1.0998,-1.1002,-1.1002,-1.0967,-1.097,-1.0859,-1.0844,-1.094,-1.0939,-1.0938,0,-1.1262,-1.1235,-1.1222,-1.1206,-1.1197,-1.117,-1.1154,-1.1157,-1.1139,-1.1116,-1.1093,-1.1061,-1.1036,-1.0981,-1.0969,-1.0938,-1.094,-1.0904,-1.0935,-1.0935,-1.0938,-1.0939,-1.0936,-1.0897,-1.0896,-1.0895,-1.0894,0,-1.1177,-1.1179,-1.1157,-1.1135,-1.1116,-1.1098,-1.108,-1.1065,-1.1066,-1.1045,-1.1013,-1.0994,-1.0954,-1.0921,-1.089,-1.0877,-1.0884,-1.0885,-1.0875,-1.0873,-1.0876,-1.0873,-1.0984,-1.0887,-1.0888,-1.0888,-1.0889,-1.0889,-1.1114,-1.1091,-1.1079,-1.1053,-1.1042,-1.1025,-1.1002,-1.0996,-1.0971,-1.0941,-1.0944,-1.0908,-1.0888,-1.0848,-1.0834,-1.0803,-1.0814,-1.08,-1.0796,-1.0793,-1.0789,-1.0883,-1.0797,-1.0797,-1.0798,-1.0798,-1.0798,0,-1.1029,-1.1023,-1.0999,-1.0977,-1.0956,-1.097,-1.0951,-1.0932,-1.0901,-1.0884,-1.086,-1.0822,-1.0791,-1.0778,-1.0746,-1.0724,-1.0727,-1.0715,-1.0716,-1.0713,-1.0781,-1.0792,-1.0714,-1.0714,-1.0714,-1.0714,-1.0714,-1.0714,-1.0982,-1.0944,-1.0945,-1.0899,-1.0892,-1.086,-1.0848,-1.0832,-1.0819,-1.0777,-1.0753,-1.0746,-1.0729,-1.0697,-1.0668,-1.0664,-1.0651,-1.0638,-1.0636,-1.07,-1.0708,-1.0716,-1.0727,-1.0636,-1.0636,-1.057,-1.0569,-1.0569]},{"header":{"parameterUnit":"m.s-1","parameterCategory":1,"la1":30.2991,"la2":30.254,"lo1":-89.0895,"lo2":-89.0444,"dy":0.0017,"dx":0.0017,"nx":28,"ny":28,"refTime":"2025-07-16T09:00:00:Z","depth":0,"parameterNumber":3,"parameterNumberName":"V-component_of_WINDS"},"data":[0,0,0,0,0,0,0,0,0,0,0,0,0,0,0,0,0,0,0,0,0,0,0,0,0,0,0,0,0,0,0,0,0,0,0,0,0,0,0,0,0,0,0,0,0,0,0,0,0,0,0,0,0,0,0,0,0,0,-0.1954,-0.1958,0,-0.2286,-0.2289,-0.2293,-0.2463,-0.2463,-0.2464,-0.2464,-0.2814,-0.2823,-0.2832,0,0,0,0,0,0,0,0,0,0,0,0,0,-0.1477,-0.1485,-0.1954,-0.1958,-0.1962,-0.2285,-0.229,-0.2294,-0.2463,-0.2463,-0.2464,-0.2464,-0.2811,-0.2821,-0.2832,0,0,0,0,0,0,0,0,0,0,0,0,0,-0.1734,-0.1487,-0.1953,-0.2085,-0.21,-0.2284,-0.229,-0.2295,-0.2463,-0.2463,-0.2464,-0.2464,-0.2807,-0.282,-0.2834,-0.2915,0,0,-0.2876,-0.2882,0,0,0,0,0,0,0,0,-0.1719,-0.1751,-0.2062,-0.2076,-0.2094,-0.2333,-0.225,-0.2503,-0.2463,-0.2326,-0.2464,-0.2464,-0.2654,-0.2681,-0.2743,-0.2931,-0.2946,-0.2877,-0.2886,-0.2892,-0.2895,0,0,0,0,0,0,0,-0.1701,-0.1738,-0.2086,-0.2066,-0.2086,-0.2131,-0.2168,-0.2299,-0.2485,-0.2338,-0.2351,-0.2387,-0.2663,-0.2729,-0.2752,-0.2951,-0.2877,-0.2889,-0.2898,-0.2903,-0.3225,-0.3226,0,0,0,0,0,0,-0.1661,-0.1722,-0.2075,-0.2095,-0.1903,-0.2139,-0.2181,-0.2256,-0.2484,-0.2519,-0.2387,-0.2394,-0.2705,-0.2736,-0.2765,-0.2877,-0.2891,-0.2904,-0.2912,-0.3225,-0.3226,-0.3226,0,0,0,0,0,0,-0.165,-0.169,-0.2062,-0.1912,-0.1963,-0.2147,-0.2231,-0.2263,-0.2329,-0.2521,-0.2556,-0.2419,-0.2707,-0.2746,-0.2876,-0.2891,-0.2911,-0.2923,-0.3225,-0.3225,-0.3226,-0.3098,0,0,0,0,0,0,-0.1635,-0.1685,-0.1716,-0.1912,-0.197,-0.2164,-0.2232,-0.2269,-0.2351,-0.2363,-0.2561,-0.2594,-0.271,-0.2855,-0.289,-0.291,-0.2934,-0.3224,-0.3225,-0.3226,-0.3102,-0.3095,-0.3088,0,0,0,0,0,-0.1618,-0.1669,-0.1716,-0.1758,-0.2011,-0.2164,-0.2198,-0.2328,-0.2351,-0.2385,-0.2508,-0.2587,-0.2883,-0.2866,-0.2908,-0.2933,-0.3224,-0.3225,-0.3226,-0.3106,-0.3096,-0.3088,0,0,0,0,0,0,-0.1474,-0.1697,-0.1752,-0.1867,-0.1995,-0.2192,-0.2239,-0.2313,-0.244,-0.2447,-0.2605,-0.2649,-0.2765,-0.2862,-0.284,-0.3024,-0.3062,-0.3071,-0.2956,-0.2949,-0.2942,-0.2918,-0.2945,0,0,0,0,0,-0.1454,-0.1556,-0.1747,-0.1831,-0.1891,-0.2053,-0.2125,-0.2213,-0.2353,-0.2409,-0.2543,-0.2678,-0.2802,-0.2881,-0.3005,-0.3116,-0.3164,-0.3154,-0.3146,-0.314,-0.3147,-0.3215,-0.3213,-0.3228,-0.3228,-0.3228,0,0,-0.1418,-0.1552,-0.1608,-0.1805,-0.1914,-0.202,-0.2098,-0.2206,-0.2287,-0.2427,-0.2558,-0.266,-0.2822,-0.2943,-0.3004,-0.3028,-0.3152,-0.314,-0.3133,-0.3145,-0.3215,-0.3214,-0.3212,-0.3229,-0.3228,-0.3228,0,0,-0.1405,-0.1515,-0.1597,-0.1704,-0.1867,-0.1975,-0.1994,-0.218,-0.2252,-0.2385,-0.2493,-0.2593,-0.2802,-0.2913,-0.2997,-0.3025,-0.3104,-0.3061,-0.3025,-0.309,-0.3088,-0.3088,-0.3101,-0.3103,-0.3067,-0.3066,-0.3066,0,-0.1339,-0.1499,-0.1631,-0.1733,-0.1818,-0.1945,-0.2032,-0.213,-0.2327,-0.2384,-0.2407,-0.2673,-0.2791,-0.2941,-0.2947,-0.301,-0.304,-0.3041,-0.3077,-0.3078,-0.308,-0.3094,-0.3098,-0.306,-0.3061,-0.3062,-0.3062,0,-0.1412,-0.1521,-0.1568,-0.1751,-0.1841,-0.1935,-0.2084,-0.216,-0.224,-0.2345,-0.2481,-0.2626,-0.2783,-0.2824,-0.2905,-0.2987,-0.2997,-0.3046,-0.3088,-0.307,-0.3086,-0.3092,-0.3052,-0.3054,-0.3056,-0.3057,0,0,-0.132,-0.1573,-0.1588,-0.1673,-0.1862,-0.1951,-0.2051,-0.22,-0.2264,-0.2395,-0.2485,-0.2658,-0.2705,-0.28,-0.2894,-0.295,-0.2966,-0.2994,-0.3001,-0.2986,-0.3067,-0.303,-0.3034,-0.3017,-0.3019,-0.302,-0.3054,0,-0.1335,-0.1517,-0.1639,-0.1775,-0.1879,-0.2001,-0.2089,-0.2215,-0.2316,-0.2422,-0.2536,-0.2656,-0.2708,-0.2766,-0.2827,-0.295,-0.2985,-0.2949,-0.3107,-0.3111,-0.3064,-0.3042,-0.3004,-0.3029,-0.3061,-0.3062,-0.3063,0,-0.1379,-0.1502,-0.1647,-0.1825,-0.1873,-0.1949,-0.2097,-0.2195,-0.2342,-0.2412,-0.2516,-0.2612,-0.2726,-0.2755,-0.2917,-0.289,-0.2961,-0.3032,-0.3036,-0.3058,-0.3087,-0.3066,-0.3041,-0.3045,-0.3074,-0.3073,-0.3072,0,-0.1299,-0.1503,-0.1616,-0.1685,-0.1894,-0.1945,-0.2036,-0.2183,-0.2265,-0.2395,-0.245,-0.2592,-0.2671,-0.278,-0.2913,-0.2921,-0.3062,-0.3101,-0.3126,-0.3123,-0.3153,-0.315,-0.3141,-0.3193,-0.3193,-0.3193,-0.3193,0,-0.1306,-0.139,-0.1583,-0.1653,-0.1753,-0.1892,-0.1988,-0.2089,-0.2218,-0.2313,-0.2427,-0.2514,-0.2682,-0.279,-0.2895,-0.3014,-0.3048,-0.311,-0.3138,-0.3102,-0.3094,-0.3153,-0.3156,-0.3194,-0.3194,-0.3194,-0.3194,0,-0.1236,-0.1368,-0.15,-0.1686,-0.1735,-0.18,-0.1961,-0.2036,-0.2141,-0.2259,-0.2295,-0.2463,-0.2596,-0.2738,-0.292,-0.2991,-0.3106,-0.3143,-0.3055,-0.3071,-0.3089,-0.3086,-0.312,-0.3133,-0.3172,-0.3172,-0.3171,0,-0.1232,-0.13,-0.1492,-0.1561,-0.1648,-0.1759,-0.1842,-0.1983,-0.2066,-0.2238,-0.2293,-0.2433,-0.2554,-0.2762,-0.2902,-0.3043,-0.3086,-0.3088,-0.3108,-0.307,-0.3089,-0.3084,-0.3093,-0.3082,-0.3081,-0.308,-0.3079,0,-0.1213,-0.1274,-0.1389,-0.1526,-0.1622,-0.1738,-0.1859,-0.191,-0.2075,-0.2163,-0.2299,-0.2391,-0.2576,-0.2716,-0.2872,-0.297,-0.3053,-0.3071,-0.3085,-0.305,-0.2997,-0.3029,-0.304,-0.307,-0.3071,-0.3072,-0.3072,-0.3073,-0.1179,-0.1244,-0.139,-0.1514,-0.1618,-0.1728,-0.1807,-0.1922,-0.2036,-0.2195,-0.2271,-0.2407,-0.2555,-0.2774,-0.2868,-0.2979,-0.3004,-0.3023,-0.3029,-0.3032,-0.3024,-0.2976,-0.3008,-0.3009,-0.3009,-0.301,-0.301,0,-0.1167,-0.1266,-0.1378,-0.1542,-0.164,-0.1705,-0.1842,-0.1921,-0.2038,-0.2166,-0.2281,-0.2438,-0.2574,-0.2723,-0.2869,-0.2929,-0.2972,-0.2963,-0.2962,-0.2984,-0.2992,-0.2967,-0.2927,-0.2927,-0.2927,-0.2927,-0.2927,-0.2927,-0.1173,-0.1288,-0.1367,-0.1537,-0.1637,-0.1768,-0.1841,-0.1944,-0.2047,-0.2216,-0.2328,-0.2423,-0.2561,-0.2718,-0.2846,-0.2887,-0.2937,-0.2918,-0.297,-0.2976,-0.2983,-0.2989,-0.2966,-0.2927,-0.2927,-0.2953,-0.2953,-0.2954]}]]